[[{"header":{"parameterUnit":"m.s-1","parameterCategory":1,"la1":30.2991,"la2":30.254,"lo1":-89.0895,"lo2":-89.0444,"dy":0.0017,"dx":0.0017,"nx":28,"ny":28,"refTime":"2024-04-24T21:00:00:Z","depth":0,"parameterNumber":2,"parameterNumberName":"U-component_of_WINDS"},"data":[0,0,0,0,0,0,0,0,0,0,0,0,0,0,0,0,0,0,0,0,0,0,0,0,0,0,0,0,0,0,0,0,0,0,0,0,0,0,0,0,0,0,0,0,0,0,0,0,0,0,0,0,0,0,0,0,0,0,-1.8361,-1.8362,0,-1.8462,-1.8463,-1.8464,-1.8414,-1.8412,-1.8409,-1.8406,-1.8511,-1.8516,-1.8521,0,0,0,0,0,0,0,0,0,0,0,0,0,-1.8126,-1.8131,-1.8361,-1.8362,-1.8363,-1.8462,-1.8463,-1.8464,-1.8415,-1.8411,-1.8408,-1.8405,-1.8509,-1.8515,-1.8522,0,0,0,0,0,0,0,0,0,0,0,0,0,-1.8228,-1.8133,-1.836,-1.835,-1.835,-1.8461,-1.8463,-1.8465,-1.8415,-1.8411,-1.8407,-1.8404,-1.8507,-1.8515,-1.8522,-1.865,0,0,-1.8546,-1.855,0,0,0,0,0,0,0,0,-1.8222,-1.8237,-1.835,-1.8351,-1.8351,-1.8421,-1.8419,-1.8527,-1.8416,-1.8391,-1.8406,-1.8402,-1.8484,-1.8494,-1.8521,-1.8655,-1.8659,-1.8547,-1.8552,-1.8555,-1.8557,0,0,0,0,0,0,0,-1.8215,-1.8232,-1.8401,-1.8352,-1.8353,-1.8341,-1.8351,-1.8439,-1.8458,-1.8393,-1.8389,-1.8402,-1.8484,-1.8514,-1.8524,-1.8661,-1.8547,-1.8554,-1.8559,-1.8562,-1.8906,-1.891,0,0,0,0,0,0,-1.8209,-1.8227,-1.8397,-1.8404,-1.8276,-1.8349,-1.836,-1.8403,-1.8457,-1.8462,-1.8405,-1.8399,-1.8503,-1.8514,-1.8527,-1.8681,-1.8555,-1.8563,-1.8567,-1.8902,-1.8907,-1.8912,0,0,0,0,0,0,-1.8204,-1.8224,-1.8393,-1.8314,-1.8335,-1.8357,-1.8406,-1.8407,-1.8437,-1.8467,-1.847,-1.8432,-1.85,-1.8516,-1.862,-1.8684,-1.8566,-1.8573,-1.8896,-1.8903,-1.8909,-1.8989,0,0,0,0,0,0,-1.8197,-1.8223,-1.8271,-1.8316,-1.8339,-1.8484,-1.8409,-1.8412,-1.8451,-1.8444,-1.8493,-1.8497,-1.8498,-1.8609,-1.8628,-1.8693,-1.8579,-1.8891,-1.8899,-1.8907,-1.8981,-1.8998,-1.9012,0,0,0,0,0,-1.8189,-1.8289,-1.8273,-1.8294,-1.84,-1.8488,-1.8501,-1.85,-1.8456,-1.8505,-1.8524,-1.8496,-1.8674,-1.862,-1.8641,-1.8709,-1.8887,-1.8897,-1.8907,-1.8974,-1.8995,-1.9012,0,0,0,0,0,0,-1.825,-1.8294,-1.8278,-1.8395,-1.8438,-1.8479,-1.854,-1.8521,-1.8578,-1.8569,-1.8565,-1.8577,-1.8685,-1.8707,-1.8646,-1.8836,-1.8774,-1.8788,-1.8818,-1.8838,-1.8853,-1.8845,-1.8586,0,0,0,0,0,-1.8277,-1.8345,-1.838,-1.848,-1.8503,-1.8518,-1.8557,-1.8552,-1.8597,-1.8615,-1.8642,-1.8687,-1.8753,-1.8796,-1.8859,-1.8984,-1.8995,-1.9042,-1.9058,-1.907,-1.9083,-1.9153,-1.9175,-1.8945,-1.8945,-1.8944,0,0,-1.8333,-1.8366,-1.8409,-1.8493,-1.8526,-1.8597,-1.8534,-1.8611,-1.8664,-1.8626,-1.8727,-1.8749,-1.8798,-1.8915,-1.8967,-1.8936,-1.9149,-1.9083,-1.9093,-1.9099,-1.9166,-1.9188,-1.9207,-1.8951,-1.895,-1.8949,0,0,-1.8473,-1.8504,-1.8592,-1.8627,-1.8678,-1.8688,-1.8709,-1.8754,-1.8767,-1.8868,-1.8842,-1.8905,-1.9019,-1.9056,-1.909,-1.9247,-1.9224,-1.9268,-1.9349,-1.9418,-1.9436,-1.9452,-1.9509,-1.953,-1.9281,-1.9281,-1.9281,0,-1.8536,-1.8642,-1.8639,-1.8719,-1.8758,-1.8728,-1.8818,-1.8852,-1.8921,-1.8949,-1.8913,-1.9057,-1.9088,-1.9214,-1.9253,-1.9281,-1.9306,-1.9262,-1.9434,-1.945,-1.9465,-1.9519,-1.9541,-1.9286,-1.9285,-1.9285,-1.9284,0,-1.8719,-1.8793,-1.8858,-1.8926,-1.8972,-1.9056,-1.9067,-1.9114,-1.9107,-1.9121,-1.9225,-1.9262,-1.9333,-1.9362,-1.9355,-1.9488,-1.9467,-1.9433,-1.937,-1.9492,-1.9543,-1.9564,-1.9293,-1.9291,-1.929,-1.9288,0,0,-1.8897,-1.8965,-1.8989,-1.902,-1.9076,-1.9133,-1.9218,-1.9287,-1.9328,-1.9378,-1.9449,-1.9547,-1.9517,-1.9556,-1.9552,-1.9613,-1.9737,-1.9571,-1.9573,-1.9602,-1.9887,-1.9913,-1.9937,-1.9722,-1.9726,-1.9729,-1.9884,0,-1.9041,-1.9188,-1.9189,-1.9325,-1.9395,-1.9369,-1.9442,-1.9485,-1.9502,-1.9564,-1.9582,-1.9652,-1.9606,-1.9629,-1.9688,-1.9709,-1.9794,-1.9698,-1.9789,-1.9793,-1.9778,-1.9964,-1.9991,-2.0135,-1.9903,-1.9907,-1.9909,0,-1.9228,-1.9285,-1.9428,-1.9476,-1.9505,-1.9571,-1.9636,-1.9695,-1.9744,-1.9752,-1.9797,-1.9785,-1.9873,-1.9808,-1.9929,-1.9863,-1.9901,-1.9918,-1.9923,-1.9932,-1.9858,-1.9978,-2.018,-2.0202,-1.9941,-1.9938,-1.9936,0,-1.9345,-1.9457,-1.9558,-1.9586,-1.9644,-1.9691,-1.9718,-1.9763,-1.9805,-1.9863,-1.989,-1.9957,-1.9994,-2.0046,-2.0053,-2.0005,-2.0176,-2.0111,-2.0186,-2.0186,-2.0223,-2.022,-2.0434,-2.0246,-2.0246,-2.0246,-2.0245,0,-1.9506,-1.9595,-1.9612,-1.9674,-1.9773,-1.9775,-1.9873,-1.9896,-1.9937,-2.0004,-1.9985,-2.0049,-2.0055,-2.012,-2.0127,-2.0227,-2.0244,-2.0253,-2.0254,-2.0255,-2.0254,-2.028,-2.027,-2.0251,-2.025,-2.0249,-2.0248,0,-1.9653,-1.9668,-1.9776,-1.9823,-1.9838,-1.9909,-1.995,-2.001,-2.0025,-2.011,-2.013,-2.0155,-2.0231,-2.0244,-2.0334,-2.0338,-2.0459,-2.0449,-2.0443,-2.0442,-2.0516,-2.051,-2.0755,-2.0788,-2.0578,-2.058,-2.0581,0,-1.9755,-1.9823,-1.9878,-1.9922,-1.9951,-2.0021,-2.0065,-2.007,-2.0116,-2.0179,-2.0232,-2.0307,-2.0367,-2.0491,-2.0517,-2.0586,-2.0578,-2.066,-2.0589,-2.0588,-2.0581,-2.0577,-2.0585,-2.0673,-2.0675,-2.0677,-2.0679,0,-1.9934,-1.9939,-2.0002,-2.007,-2.0123,-2.0176,-2.0227,-2.0264,-2.0275,-2.0329,-2.0407,-2.0454,-2.0547,-2.0622,-2.0692,-2.0719,-2.0702,-2.0701,-2.0723,-2.0724,-2.0718,-2.0724,-2.0481,-2.0695,-2.0694,-2.0693,-2.0692,-2.0691,-2.0062,-2.0122,-2.0171,-2.0244,-2.0282,-2.0331,-2.039,-2.0414,-2.0479,-2.0555,-2.0555,-2.0641,-2.0691,-2.0783,-2.0816,-2.0884,-2.0858,-2.0888,-2.0896,-2.0904,-2.0912,-2.0708,-2.0897,-2.0896,-2.0896,-2.0895,-2.0895,0,-2.0241,-2.0272,-2.0339,-2.0411,-2.0468,-2.0447,-2.0503,-2.0553,-2.0629,-2.0677,-2.0737,-2.0829,-2.0902,-2.0935,-2.1008,-2.1057,-2.1051,-2.1076,-2.1072,-2.108,-2.093,-2.0905,-2.108,-2.108,-2.108,-2.1079,-2.1079,-2.1079,-2.0341,-2.0442,-2.0454,-2.0575,-2.0605,-2.069,-2.0724,-2.0769,-2.0807,-2.0911,-2.0972,-2.0993,-2.1036,-2.1112,-2.1179,-2.1187,-2.1215,-2.1244,-2.1249,-2.1108,-2.109,-2.1072,-2.1048,-2.125,-2.125,-2.1393,-2.1394,-2.1395]},{"header":{"parameterUnit":"m.s-1","parameterCategory":1,"la1":30.2991,"la2":30.254,"lo1":-89.0895,"lo2":-89.0444,"dy":0.0017,"dx":0.0017,"nx":28,"ny":28,"refTime":"2024-04-24T21:00:00:Z","depth":0,"parameterNumber":3,"parameterNumberName":"V-component_of_WINDS"},"data":[0,0,0,0,0,0,0,0,0,0,0,0,0,0,0,0,0,0,0,0,0,0,0,0,0,0,0,0,0,0,0,0,0,0,0,0,0,0,0,0,0,0,0,0,0,0,0,0,0,0,0,0,0,0,0,0,0,0,0.7674,0.7672,0,0.7522,0.7521,0.7519,0.7484,0.7485,0.7486,0.7487,0.7326,0.7321,0.7316,0,0,0,0,0,0,0,0,0,0,0,0,0,0.7927,0.7922,0.7674,0.7672,0.767,0.7523,0.7521,0.7518,0.7484,0.7485,0.7486,0.7487,0.7328,0.7322,0.7315,0,0,0,0,0,0,0,0,0,0,0,0,0,0.78,0.7921,0.7674,0.7635,0.763,0.7523,0.752,0.7518,0.7483,0.7485,0.7487,0.7488,0.733,0.7322,0.7315,0.7234,0,0,0.729,0.7287,0,0,0,0,0,0,0,0,0.7807,0.7791,0.7643,0.7638,0.7632,0.7524,0.7551,0.7423,0.7483,0.7539,0.7487,0.7489,0.739,0.7378,0.7345,0.7227,0.722,0.729,0.7285,0.7282,0.7279,0,0,0,0,0,0,0,0.7816,0.7797,0.7614,0.7641,0.7634,0.7623,0.7607,0.7526,0.7457,0.7534,0.7531,0.7514,0.7388,0.7353,0.7341,0.7217,0.729,0.7283,0.7278,0.7275,0.7022,0.702,0,0,0,0,0,0,0.7833,0.7805,0.7619,0.7609,0.7725,0.7617,0.7599,0.7557,0.7458,0.7445,0.7513,0.7513,0.7366,0.7351,0.7336,0.7233,0.7282,0.7274,0.727,0.7024,0.7022,0.702,0,0,0,0,0,0,0.7838,0.7816,0.7625,0.7706,0.7681,0.7611,0.7564,0.7553,0.7518,0.7442,0.7429,0.7491,0.7367,0.7347,0.7259,0.7227,0.7271,0.7264,0.7026,0.7023,0.7021,0.7028,0,0,0,0,0,0,0.7846,0.7819,0.7789,0.7706,0.7677,0.7553,0.7562,0.7549,0.7506,0.7504,0.7418,0.7405,0.7366,0.7271,0.7252,0.7217,0.7257,0.7029,0.7025,0.7022,0.7031,0.7026,0.7022,0,0,0,0,0,0.7855,0.7796,0.7787,0.7765,0.7638,0.7551,0.7534,0.7492,0.7503,0.7471,0.7422,0.7408,0.7234,0.7263,0.724,0.7203,0.7031,0.7026,0.7022,0.7032,0.7027,0.7022,0,0,0,0,0,0,0.7875,0.7785,0.7774,0.7687,0.7627,0.7545,0.7504,0.7488,0.7422,0.7424,0.7373,0.7353,0.7269,0.7227,0.726,0.7118,0.7133,0.7123,0.7148,0.7142,0.7138,0.7149,0.7251,0,0,0,0,0,0.787,0.7809,0.7732,0.7663,0.7634,0.7574,0.7535,0.7508,0.7443,0.7417,0.7361,0.7297,0.7228,0.7183,0.7115,0.7025,0.7004,0.6988,0.6984,0.6981,0.6972,0.6919,0.691,0.7005,0.7005,0.7005,0,0,0.7858,0.7801,0.7765,0.7666,0.7616,0.7551,0.7553,0.7485,0.7436,0.7406,0.732,0.7277,0.7202,0.7112,0.707,0.7075,0.6942,0.6975,0.6973,0.6966,0.6914,0.6905,0.6897,0.7002,0.7002,0.7003,0,0,0.7803,0.7755,0.7691,0.7641,0.7567,0.7527,0.7512,0.7432,0.7403,0.7317,0.7292,0.7232,0.7115,0.7061,0.7019,0.6943,0.6926,0.6923,0.6899,0.6848,0.684,0.6833,0.6804,0.6794,0.6915,0.6915,0.6915,0,0.7796,0.77,0.7659,0.7592,0.7548,0.752,0.7453,0.7406,0.7313,0.7282,0.729,0.7141,0.7088,0.6985,0.6966,0.6934,0.6913,0.6931,0.6845,0.6838,0.6831,0.6802,0.6791,0.6915,0.6915,0.6915,0.6915,0,0.7694,0.7628,0.7585,0.7497,0.7448,0.7382,0.7329,0.7284,0.7261,0.722,0.7131,0.7068,0.6986,0.696,0.6936,0.6852,0.6857,0.6856,0.6868,0.6822,0.6794,0.6783,0.6915,0.6915,0.6915,0.6915,0,0,0.7646,0.7537,0.7522,0.7481,0.7396,0.7343,0.7274,0.7196,0.7157,0.7093,0.7033,0.6934,0.6932,0.6884,0.6854,0.681,0.675,0.6813,0.681,0.6801,0.665,0.665,0.6639,0.674,0.6738,0.6736,0.6656,0,0.7579,0.7457,0.7418,0.7315,0.7252,0.7224,0.7164,0.7104,0.7065,0.7003,0.6958,0.6888,0.6892,0.6863,0.6818,0.6767,0.6719,0.6773,0.668,0.6677,0.6697,0.6624,0.6624,0.6552,0.6645,0.6643,0.6642,0,0.7483,0.7419,0.7311,0.7233,0.7205,0.7152,0.7076,0.7019,0.695,0.6924,0.687,0.6844,0.6769,0.6788,0.6682,0.672,0.6679,0.6649,0.6645,0.6633,0.6655,0.6607,0.6528,0.6516,0.6625,0.6626,0.6627,0,0.7456,0.7343,0.7263,0.7229,0.7137,0.71,0.706,0.6993,0.6947,0.688,0.685,0.6775,0.6733,0.6675,0.6628,0.6647,0.6525,0.6541,0.6499,0.65,0.6473,0.6475,0.6383,0.6451,0.6452,0.6452,0.6452,0,0.7383,0.7317,0.7249,0.72,0.7124,0.708,0.7006,0.6963,0.6904,0.6844,0.6815,0.6759,0.6703,0.6638,0.6601,0.6518,0.65,0.6475,0.6465,0.6476,0.6478,0.6447,0.6449,0.6449,0.6449,0.645,0.645,0,0.7339,0.7292,0.7202,0.7123,0.7101,0.7049,0.698,0.6929,0.6889,0.6813,0.6793,0.6728,0.6651,0.66,0.6501,0.6476,0.6384,0.6377,0.6407,0.6402,0.6362,0.6366,0.6245,0.6226,0.631,0.6309,0.6308,0,0.7295,0.7243,0.7159,0.7118,0.7077,0.7011,0.6965,0.6919,0.6872,0.6789,0.6748,0.6669,0.6604,0.6481,0.6424,0.6348,0.6337,0.63,0.6325,0.6337,0.6333,0.6336,0.6329,0.6295,0.6294,0.6294,0.6293,0,0.722,0.7199,0.7134,0.7061,0.7008,0.6947,0.6887,0.6854,0.6797,0.6745,0.6667,0.6616,0.6515,0.6436,0.6355,0.6311,0.6291,0.6286,0.6272,0.6281,0.63,0.6286,0.6394,0.6289,0.6289,0.6289,0.629,0.629,0.7172,0.7124,0.7057,0.6986,0.6936,0.688,0.6828,0.6782,0.6716,0.6632,0.6608,0.6526,0.6456,0.6345,0.63,0.6233,0.6236,0.6216,0.6211,0.6206,0.6204,0.6313,0.6218,0.6218,0.6218,0.6218,0.6218,0,0.7093,0.7049,0.6984,0.6901,0.6844,0.6834,0.6766,0.6719,0.6647,0.6585,0.6521,0.643,0.6353,0.6291,0.6211,0.617,0.6158,0.615,0.6151,0.6141,0.6207,0.6226,0.616,0.616,0.616,0.616,0.616,0.616,0.7046,0.6964,0.6935,0.6827,0.6782,0.6703,0.6665,0.6612,0.6562,0.6462,0.6399,0.6359,0.6296,0.6211,0.614,0.6123,0.6094,0.6087,0.6068,0.613,0.6136,0.6142,0.616,0.6081,0.6081,0.6006,0.6006,0.6005]}]]